[[{"header":{"parameterUnit":"m.s-1","parameterCategory":1,"la1":30.2991,"la2":30.254,"lo1":-89.0895,"lo2":-89.0444,"dy":0.0017,"dx":0.0017,"nx":28,"ny":28,"refTime":"2024-07-25T21:00:00:Z","depth":0,"parameterNumber":2,"parameterNumberName":"U-component_of_WINDS"},"data":[0,0,0,0,0,0,0,0,0,0,0,0,0,0,0,0,0,0,0,0,0,0,0,0,0,0,0,0,0,0,0,0,0,0,0,0,0,0,0,0,0,0,0,0,0,0,0,0,0,0,0,0,0,0,0,0,0,0,1.1981,1.1982,0,1.2053,1.2054,1.2055,1.2123,1.2124,1.2125,1.2126,1.2195,1.2196,1.2198,0,0,0,0,0,0,0,0,0,0,0,0,0,1.19,1.1902,1.1981,1.1982,1.1983,1.2053,1.2054,1.2055,1.2123,1.2124,1.2125,1.2126,1.2195,1.2196,1.2198,0,0,0,0,0,0,0,0,0,0,0,0,0,1.195,1.1902,1.1981,1.2026,1.203,1.2053,1.2054,1.2055,1.2123,1.2124,1.2126,1.2127,1.2195,1.2196,1.2198,1.2181,0,0,1.2202,1.2203,0,0,0,0,0,0,0,0,1.1947,1.1953,1.2018,1.2022,1.2028,1.2081,1.2051,1.2097,1.2123,1.2088,1.2126,1.2127,1.2156,1.2161,1.2171,1.2184,1.2187,1.2203,1.2204,1.2204,1.2205,0,0,0,0,0,0,0,1.1944,1.195,1.2009,1.2019,1.2025,1.2041,1.205,1.206,1.2113,1.2091,1.2096,1.2104,1.2159,1.2169,1.2173,1.2188,1.2203,1.2204,1.2205,1.2205,1.219,1.2189,0,0,0,0,0,0,1.1934,1.1947,1.2007,1.2012,1.199,1.2041,1.2051,1.2062,1.2113,1.2123,1.2102,1.2107,1.2166,1.2171,1.2176,1.2158,1.2204,1.2206,1.2206,1.2191,1.219,1.2188,0,0,0,0,0,0,1.1932,1.1938,1.2004,1.1981,1.199,1.2041,1.2053,1.2063,1.2074,1.2122,1.2132,1.2104,1.2167,1.2174,1.2179,1.2162,1.2206,1.2208,1.2193,1.2191,1.2189,1.2123,0,0,0,0,0,0,1.1929,1.1937,1.1932,1.198,1.1991,1.2006,1.2053,1.2063,1.2077,1.2083,1.2126,1.2134,1.2169,1.2177,1.2181,1.2165,1.2209,1.2195,1.2192,1.219,1.2127,1.2119,1.2113,0,0,0,0,0,1.1926,1.1909,1.1931,1.1938,1.1985,1.2005,1.2012,1.2053,1.2075,1.2069,1.2101,1.2133,1.2164,1.2177,1.2182,1.2166,1.2196,1.2193,1.219,1.213,1.2121,1.2113,0,0,0,0,0,0,1.1855,1.1916,1.1941,1.194,1.1967,1.2017,1.2011,1.2042,1.2062,1.2067,1.2116,1.2125,1.2125,1.2147,1.216,1.2152,1.2184,1.2182,1.2137,1.2129,1.2121,1.2115,1.221,0,0,0,0,0,1.184,1.1852,1.1905,1.1899,1.1911,1.1959,1.1969,1.1999,1.2028,1.204,1.2072,1.2098,1.2114,1.2123,1.214,1.2132,1.2142,1.2124,1.2117,1.211,1.2107,1.2103,1.2095,1.2179,1.2179,1.2179,0,0,1.1808,1.1843,1.1847,1.1885,1.191,1.192,1.1968,1.1977,1.1984,1.2041,1.2047,1.2072,1.2105,1.2103,1.2104,1.2122,1.2087,1.2107,1.2101,1.2101,1.2099,1.2091,1.2084,1.2177,1.2177,1.2177,0,0,1.1753,1.1782,1.1779,1.1804,1.1842,1.1874,1.1873,1.1919,1.1938,1.1947,1.1989,1.1999,1.2025,1.2047,1.2061,1.2018,1.2048,1.2023,1.1983,1.1979,1.1972,1.1967,1.1949,1.1943,1.202,1.202,1.202,0,1.1707,1.1726,1.1774,1.1781,1.1796,1.185,1.1848,1.1869,1.1909,1.1918,1.1938,1.1972,1.1999,1.2002,1.1992,1.2003,1.2002,1.2016,1.197,1.1965,1.196,1.1944,1.1937,1.2016,1.2017,1.2017,1.2017,0,1.1667,1.1679,1.1673,1.1712,1.1727,1.1729,1.1777,1.1786,1.1816,1.1846,1.1853,1.1887,1.1912,1.1916,1.1944,1.1924,1.1933,1.1961,1.1993,1.1948,1.1933,1.1928,1.2011,1.2012,1.2014,1.2014,0,0,1.1565,1.1634,1.1631,1.1649,1.1696,1.1706,1.1711,1.1737,1.1743,1.1771,1.1775,1.1797,1.1823,1.184,1.1872,1.1868,1.183,1.1897,1.1898,1.1881,1.1808,1.1784,1.1777,1.1852,1.1851,1.185,1.1804,0,1.1517,1.1529,1.1574,1.1572,1.1584,1.1637,1.1641,1.167,1.1699,1.1712,1.1744,1.1758,1.1793,1.1803,1.1803,1.1835,1.1816,1.1839,1.1854,1.1854,1.184,1.1769,1.1744,1.1699,1.1799,1.1798,1.1798,0,1.146,1.1485,1.1485,1.1533,1.1539,1.1542,1.157,1.1583,1.1617,1.1638,1.1658,1.1694,1.1701,1.1735,1.1745,1.1759,1.1769,1.1786,1.1785,1.1785,1.182,1.1765,1.1686,1.1678,1.179,1.179,1.1791,0,1.1383,1.1418,1.1422,1.1437,1.1493,1.1494,1.1517,1.1553,1.1566,1.159,1.1599,1.1624,1.1636,1.1654,1.1696,1.1717,1.1701,1.1738,1.1717,1.1715,1.1707,1.1706,1.1626,1.1719,1.1719,1.1719,1.1719,0,1.1322,1.1319,1.1388,1.139,1.1389,1.1441,1.1438,1.1466,1.1498,1.1506,1.1555,1.1561,1.1617,1.163,1.1663,1.1665,1.1671,1.1687,1.1695,1.1681,1.1678,1.1685,1.1687,1.1717,1.1718,1.1718,1.1718,0,1.1233,1.128,1.1288,1.1342,1.1356,1.1352,1.1397,1.1401,1.1435,1.1444,1.145,1.1501,1.1519,1.1564,1.1592,1.1615,1.1607,1.1624,1.1595,1.16,1.1575,1.1575,1.1492,1.1483,1.1585,1.1584,1.1583,0,1.1189,1.1188,1.1243,1.1253,1.1275,1.129,1.1304,1.1357,1.1369,1.1409,1.1408,1.143,1.1449,1.1475,1.1514,1.1537,1.1553,1.1523,1.1556,1.1542,1.1549,1.1547,1.1546,1.1513,1.1512,1.1511,1.151,0,1.1104,1.1129,1.1148,1.1176,1.1192,1.1217,1.1243,1.1248,1.1307,1.1319,1.1339,1.1354,1.1385,1.1405,1.1435,1.1458,1.1492,1.15,1.1496,1.1479,1.1461,1.1468,1.1571,1.1501,1.1501,1.1502,1.1503,1.1503,1.1035,1.1037,1.1076,1.1096,1.1123,1.1147,1.1154,1.1189,1.1207,1.1236,1.1267,1.1283,1.1318,1.1361,1.1382,1.1395,1.1413,1.1407,1.1405,1.1402,1.1395,1.1462,1.1401,1.1401,1.1401,1.1402,1.1402,0,1.095,1.0979,1.0998,1.1035,1.1051,1.1087,1.1119,1.1129,1.1143,1.1174,1.1194,1.1216,1.1237,1.1279,1.1303,1.1305,1.1322,1.131,1.1308,1.1312,1.1378,1.1378,1.1296,1.1296,1.1296,1.1296,1.1296,1.1296,1.0908,1.0912,1.0942,1.096,1.0989,1.1006,1.1021,1.1044,1.1069,1.1092,1.111,1.1139,1.1174,1.1202,1.1223,1.1235,1.124,1.1222,1.1238,1.1298,1.1308,1.1317,1.1317,1.1223,1.1223,1.1171,1.117,1.117]},{"header":{"parameterUnit":"m.s-1","parameterCategory":1,"la1":30.2991,"la2":30.254,"lo1":-89.0895,"lo2":-89.0444,"dy":0.0017,"dx":0.0017,"nx":28,"ny":28,"refTime":"2024-07-25T21:00:00:Z","depth":0,"parameterNumber":3,"parameterNumberName":"V-component_of_WINDS"},"data":[0,0,0,0,0,0,0,0,0,0,0,0,0,0,0,0,0,0,0,0,0,0,0,0,0,0,0,0,0,0,0,0,0,0,0,0,0,0,0,0,0,0,0,0,0,0,0,0,0,0,0,0,0,0,0,0,0,0,3.5975,3.5976,0,3.6095,3.6097,3.6098,3.6109,3.6108,3.6107,3.6105,3.6225,3.6229,3.6233,0,0,0,0,0,0,0,0,0,0,0,0,0,3.5751,3.5755,3.5975,3.5976,3.5978,3.6095,3.6097,3.6098,3.6109,3.6108,3.6106,3.6105,3.6223,3.6228,3.6234,0,0,0,0,0,0,0,0,0,0,0,0,0,3.5857,3.5756,3.5974,3.5998,3.6001,3.6095,3.6097,3.6099,3.611,3.6108,3.6106,3.6104,3.6222,3.6228,3.6234,3.6312,0,0,3.6254,3.6257,0,0,0,0,0,0,0,0,3.5851,3.5865,3.5993,3.5996,3.6,3.6085,3.6061,3.617,3.611,3.6068,3.6105,3.6103,3.618,3.6189,3.6216,3.6318,3.6323,3.6255,3.6259,3.6261,3.6263,0,0,0,0,0,0,0,3.5844,3.586,3.6022,3.5994,3.5999,3.6001,3.6014,3.6082,3.6133,3.6072,3.6073,3.6087,3.6181,3.621,3.6219,3.6325,3.6255,3.626,3.6264,3.6267,3.6496,3.6498,0,0,0,0,0,0,3.5833,3.5854,3.6018,3.6026,3.592,3.6006,3.6021,3.606,3.6132,3.6141,3.6089,3.6087,3.6199,3.6211,3.6223,3.6319,3.6261,3.6268,3.6271,3.6494,3.6497,3.6499,0,0,0,0,0,0,3.5828,3.5847,3.6014,3.594,3.5962,3.6012,3.6056,3.6063,3.6092,3.6145,3.6154,3.6109,3.6198,3.6214,3.629,3.6323,3.627,3.6276,3.6491,3.6495,3.6498,3.6511,0,0,0,0,0,0,3.5821,3.5845,3.5876,3.5941,3.5966,3.608,3.6058,3.6067,3.6103,3.6103,3.6166,3.6175,3.6198,3.628,3.6297,3.6331,3.6281,3.6489,3.6493,3.6497,3.6508,3.6515,3.652,0,0,0,0,0,3.5813,3.5874,3.5878,3.5898,3.6006,3.6082,3.6096,3.6122,3.6106,3.6137,3.6171,3.6173,3.6317,3.6288,3.6307,3.6344,3.6487,3.6492,3.6496,3.6505,3.6513,3.652,0,0,0,0,0,0,3.581,3.5883,3.5888,3.5972,3.6021,3.6083,3.6123,3.613,3.6183,3.618,3.621,3.6224,3.6299,3.6329,3.6296,3.6423,3.64,3.6409,3.64,3.6409,3.6414,3.6405,3.6287,0,0,0,0,0,3.582,3.5877,3.5937,3.6005,3.603,3.6072,3.6107,3.6123,3.6174,3.6195,3.6234,3.6283,3.6339,3.6376,3.643,3.6513,3.6526,3.6547,3.6553,3.6558,3.6565,3.661,3.662,3.6515,3.6515,3.6515,0,0,3.5839,3.5886,3.592,3.6006,3.6046,3.6103,3.609,3.6151,3.6193,3.6203,3.6278,3.6309,3.6365,3.6445,3.6482,3.6472,3.6597,3.6564,3.6568,3.6572,3.6617,3.6626,3.6635,3.6518,3.6518,3.6517,0,0,3.5904,3.5946,3.6008,3.6048,3.6109,3.6137,3.6152,3.6214,3.6236,3.6312,3.632,3.6371,3.6467,3.6507,3.654,3.662,3.6624,3.6637,3.6669,3.6713,3.6721,3.6728,3.6757,3.6767,3.6644,3.6644,3.6644,0,3.5921,3.6009,3.6038,3.61,3.6137,3.615,3.6212,3.625,3.6325,3.6349,3.6338,3.646,3.6498,3.6587,3.6607,3.6633,3.665,3.663,3.6718,3.6726,3.6733,3.676,3.6771,3.6646,3.6645,3.6645,3.6645,0,3.6025,3.6086,3.6129,3.6203,3.6244,3.6306,3.6343,3.6382,3.6395,3.6424,3.6501,3.6548,3.6613,3.6635,3.6648,3.6726,3.6718,3.6712,3.6689,3.6744,3.677,3.6781,3.6647,3.6647,3.6647,3.6646,0,0,3.6091,3.6182,3.6196,3.623,3.6299,3.6346,3.6407,3.6472,3.6504,3.6556,3.6608,3.669,3.6684,3.6721,3.6739,3.6778,3.6838,3.6767,3.6768,3.6778,3.6927,3.6931,3.6943,3.6841,3.6844,3.6845,3.6922,0,3.6164,3.6275,3.6304,3.6398,3.6454,3.6468,3.6522,3.6569,3.6598,3.6649,3.668,3.6738,3.6727,3.6749,3.6789,3.6823,3.6869,3.6818,3.6889,3.6891,3.6874,3.6957,3.6961,3.7032,3.6933,3.6935,3.6936,0,3.6263,3.6318,3.6419,3.648,3.6505,3.6553,3.6614,3.6663,3.6717,3.6735,3.6777,3.6791,3.6855,3.683,3.6918,3.6883,3.6914,3.6935,3.6938,3.6945,3.6916,3.6965,3.7055,3.7065,3.6952,3.6951,3.695,0,3.63,3.6399,3.6473,3.6501,3.6575,3.6608,3.664,3.6692,3.6729,3.6783,3.6807,3.6867,3.6899,3.6945,3.6974,3.6954,3.706,3.7037,3.7076,3.7075,3.7097,3.7095,3.7192,3.7118,3.7117,3.7117,3.7117,0,3.6378,3.6438,3.649,3.6535,3.6604,3.6635,3.6702,3.6734,3.678,3.6831,3.6846,3.6893,3.693,3.6981,3.7004,3.7074,3.7088,3.7104,3.7109,3.7102,3.71,3.7122,3.7118,3.712,3.7119,3.7119,3.7118,0,3.643,3.6468,3.6549,3.6612,3.663,3.6677,3.6731,3.6775,3.6805,3.6868,3.6885,3.6931,3.6993,3.7027,3.7104,3.712,3.7197,3.72,3.7179,3.7181,3.7218,3.7214,3.7332,3.7349,3.7264,3.7264,3.7265,0,3.6477,3.6525,3.6594,3.663,3.6663,3.672,3.6758,3.6791,3.683,3.6896,3.6931,3.6994,3.7046,3.7144,3.7183,3.7243,3.7247,3.7284,3.7255,3.7247,3.7247,3.7243,3.7248,3.7289,3.7289,3.729,3.7291,0,3.6556,3.6572,3.6628,3.669,3.6736,3.6786,3.6836,3.6864,3.6905,3.6948,3.7012,3.7052,3.7132,3.7194,3.7256,3.7288,3.7296,3.73,3.7311,3.7304,3.729,3.7298,3.7192,3.7296,3.7296,3.7295,3.7295,3.7295,3.6607,3.665,3.6705,3.6767,3.6808,3.6854,3.6898,3.6934,3.6989,3.7057,3.7073,3.714,3.7192,3.7277,3.7311,3.7364,3.7356,3.7374,3.7378,3.7382,3.7383,3.7283,3.7375,3.7375,3.7375,3.7375,3.7375,0,3.6686,3.6723,3.6779,3.6849,3.6897,3.6902,3.6957,3.6996,3.7056,3.7105,3.7156,3.723,3.729,3.7335,3.7397,3.743,3.7436,3.7445,3.7443,3.745,3.7386,3.7369,3.744,3.744,3.744,3.744,3.744,3.744,3.6732,3.6805,3.6828,3.6921,3.6957,3.7025,3.7056,3.7098,3.7138,3.7219,3.727,3.73,3.7347,3.7412,3.7468,3.748,3.7501,3.751,3.7522,3.7461,3.7454,3.7448,3.7432,3.7515,3.7515,3.7582,3.7583,3.7583]}]]